CAPE
2500 2550 2614 2586 2515 2488 2247 2327 2514 2585 2554 2812 2768 2674 2863 2719 2518 2680 2684 2440 2111 1716 1446 1564 1539 1772 2022 1921 1470 1044 1350 1512 1843 2039 1647 1668 2123 2588 2434 2370 2207 2170 2173 2236 2216 2114 2158 2213 2060 2025 1953 1970 1865 1913 1884 1802 1884 1933 1977 1918 1914 1908 1911 1780 1809 1704 1800 1712 1667 1500 1377 1468 1505 1596 1574 1556 1533 1583 1625 1540 1282 1453 1577 1624 1687
2286 2344 2399 2464 2437 2429 2374 2364 2350 2350 2424 2536 2727 2649 2750 2700 2528 2576 2584 2502 2496 2316 2044 1631 1354 1375 1624 1591 1507 928 1258 1440 1835 1934 1781 1682 2182 2788 2422 2324 2284 2146 2206 2220 2050 2048 2204 2057 2044 1863 1997 2119 2061 1771 1733 1726 1702 1659 2006 1932 1935 1908 1817 1835 1650 1583 1591 1771 1719 1790 1589 1540 1626 1658 1624 1565 1537 1696 1810 1712 1677 1733 1715 1693 1642
2132 2160 2308 2332 2256 2344 2340 2310 2447 2500 2410 2520 2554 2677 2715 2682 2594 2474 2500 2512 2437 2149 1956 1914 1611 1291 1258 1311 1276 832 1163 1452 1859 1747 1558 1688 2166 2434 2678 2404 2302 2165 2157 2197 2029 1936 2038 2052 1983 1980 2041 2131 2110 2111 2002 1940 1811 1792 2003 2041 2010 1889 1650 1801 1657 1670 1588 1464 1586 1800 1708 1768 1748 1724 1691 1702 1822 1827 1831 1864 1808 1611 1675 1657 1670
2159 2140 2222 2234 2140 2147 2376 2442 2383 2426 2460 2460 2564 2648 2686 2631 2393 2142 2198 2207 2002 1780 1717 1714 1521 1292 1211 1130 1156 742 1052 1398 1822 1662 1358 1644 2031 2285 2386 2458 2342 2208 2168 2196 2176 2184 2120 1984 2013 1934 1811 1825 1924 1930 1886 1908 1986 1840 1951 1980 2030 1943 1852 1714 1659 1660 1632 1656 1597 1709 1735 1758 1795 1765 1736 1727 1778 1840 1870 1870 1812 1779 1762 1713 1756
2201 2125 2691 2171 2145 2084 2272 2435 2357 2356 2417 2342 2347 2395 2427 2142 1936 1955 1876 1705 1553 1392 1508 1422 1260 1139 1265 1181 1094 736 938 1176 1754 1850 1310 1571 1851 2077 2211 2512 2357 2289 2232 2246 2208 2188 2116 1995 1974 1810 1917 1961 1770 1802 1794 1792 1852 1916 1842 1854 1789 1866 1722 1674 1819 1807 1847 1788 1779 1738 1786 1821 1821 1752 1758 1834 1845 1804 1789 1806 1823 1777 1748 1670 1793
2364 2115 1936 2206 2152 2162 2245 2126 1849 1940 2091 2014 1886 2182 2362 2197 1996 2529 2483 2222 1846 1757 1492 1394 1342 1069 1149 1238 1040 680 802 960 1380 1748 1548 1617 1845 2008 2104 2149 2137 2130 2288 2353 2211 2157 2198 2160 2012 1836 1793 1869 1911 1738 1896 1730 1852 1710 1858 1837 1857 1892 1866 1757 1716 1942 1824 1854 1878 1924 1960 1983 2039 1970 1929 1691 1665 1739 1759 1714 1729 1672 1634 1750 1822
2524 2363 2020 2160 2137 2296 2231 2114 2052 2157 2257 2188 2125 2052 2042 1969 2296 2116 2187 2566 2283 1905 1852 1604 1482 1359 1022 1091 1070 770 727 831 940 1279 1512 1624 1951 1948 1979 1931 1920 1987 2144 2014 2648 2217 2113 2293 2147 2089 2070 1973 1956 1841 1898 1927 1892 1765 1835 1836 1766 1842 1874 1598 1713 1888 1901 1921 1988 2006 1975 2018 1960 2061 1794 1852 1754 1628 1743 1766 1686 1631 1581 1607 1702
2569 2278 2083 2136 1844 2112 2290 2182 2281 2648 2523 2308 2126 2048 1859 1881 2418 2203 1884 1642 1602 1700 1757 1849 1639 1497 1190 969 1010 1080 716 844 890 1002 1272 1726 2028 1941 1781 1664 1718 1850 2374 1872 1881 2211 2170 2150 2162 1960 2066 1999 1893 1912 2119 2009 1598 1815 1755 1668 1687 1467 1666 1666 1768 1649 1756 1721 1720 1665 1739 1768 1622 1670 1827 1823 1646 1627 1668 1570 1481 1564 1550 1594 1598
2312 2123 2130 2310 2075 2248 2378 2440 2463 2625 2476 2480 2173 1936 2414 2500 2050 2724 1346 0 3 0 408 1202 1351 1389 1295 957 927 1024 746 929 958 1034 1588 1706 1960 2002 1798 1657 1877 2515 2433 1996 1828 1833 2312 2170 2140 2214 2122 1980 1966 1965 1970 1893 1744 1894 1672 1451 1409 1613 1490 1767 1738 1744 1716 1534 1755 1619 1605 1632 1692 1643 1692 1679 1484 1525 1516 1526 1470 1508 1544 1574 1408
2418 2224 2207 2290 2298 2282 2217 2200 2599 2740 2574 2538 2253 2470 2335 2117 1403 566 188 0 0 0 0 656 966 1084 1180 987 877 808 761 944 1188 2030 1577 1670 1872 1982 1855 1788 1950 2200 2303 2138 1928 1824 1819 2130 2216 2226 2217 2109 2040 1917 1889 1878 1897 1679 1949 1871 1744 1616 1681 1665 1539 1504 1613 1670 1775 1720 1795 1594 1581 1595 1598 1622 1652 1599 1298 1464 1460 1504 1527 1292 1282
2394 2290 2203 2625 2378 2217 2180 2536 2810 2687 2522 2499 2406 2314 2156 1920 977 5 20 0 0 0 0 0 559 850 1023 980 822 779 785 1011 1802 2042 1638 1674 1785 1946 1842 1870 1895 2021 2162 2110 1946 1840 1810 1842 1842 1856 1922 2168 2100 1832 1890 1751 1632 1809 1724 1712 1740 1752 1584 1592 1668 1500 1581 1588 1552 1666 1569 1519 1621 1564 1602 1460 1512 1544 1458 1393 1386 1452 1444 1252 1360
2329 2316 2381 2592 2364 2515 2589 2646 2872 2583 2490 2429 2345 2071 1920 1783 1651 0 0 112 0 0 0 13 2 214 718 843 839 828 899 1454 1649 1822 1746 1764 1826 2106 1842 1855 1911 1962 1989 2004 1883 1794 1801 1818 2075 1794 1854 2036 2140 1937 2076 1654 1770 1692 1735 1842 1658 1563 1664 1518 1568 1590 1613 1618 1502 1541 1677 1628 1611 1620 1500 1536 1536 1492 1413 1422 1495 1504 1383 1313 1283
2267 2276 2221 2854 2445 2370 2288 2513 2734 2614 2477 2436 2265 2035 1960 1815 1848 1800 49 0 0 0 0 0 0 2 0 586 701 798 1547 1824 1567 1686 1790 1842 1862 1972 1816 1813 1856 1917 1885 1842 1837 1816 1780 1770 1784 1814 1826 1856 1908 2166 1896 1805 1754 1725 1718 1767 1725 1584 1620 1717 1715 1743 1833 1718 1560 1443 1381 1288 1330 1314 1198 1274 1343 1364 1345 1280 1280 1379 1363 1345 1320
2218 2236 2249 2612 2523 2435 2212 2371 2710 2716 2632 2422 2341 2482 3112 2634 1478 968 126 0 0 0 0 0 0 0 54 48 632 757 1470 1689 1536 1573 1728 1805 1744 1753 1764 1732 1799 1867 1828 1761 1810 1813 1767 1706 1674 1690 1742 1782 1774 1737 1692 1647 1810 1891 1718 1594 1725 1589 1527 1540 1692 1713 1640 1472 1328 1415 1219 1164 1134 1328 1418 1258 1116 1196 1202 1188 1078 1252 1276 1264 1097
2065 2202 2186 2473 2682 2508 2180 2234 2626 2856 2683 2320 2260 2216 2279 2396 1782 482 4 42 363 0 0 0 0 0 0 0 12 492 834 1182 1329 1412 1468 1568 1644 1694 1709 1680 1716 1742 1718 1673 1736 1774 1769 1776 1777 1564 1604 1655 1697 1635 1613 2115 1830 1854 1665 1636 1636 1699 1460 1472 1505 1450 1268 1059 1186 1280 1141 1216 1230 1100 1087 948 810 1000 1094 1177 1207 1256 1049 772 717
2000 2142 2128 2149 2571 2572 2266 2016 2404 2617 2714 2324 2173 1994 1945 2129 1682 717 0 0 0 0 301 0 0 0 9 8 0 32 502 104 768 951 1170 1408 1559 1654 1682 1617 1590 1575 1552 1562 1586 1664 1745 1804 1772 1403 1358 1439 1471 1462 1524 1550 1734 1863 1625 1656 1578 1564 1404 1414 1299 1138 1029 1044 1089 950 962 754 618 828 619 602 814 635 887 922 992 982 680 606 592
2040 2062 2196 1974 2092 2433 2474 2319 2189 2401 2695 2401 2261 1940 1866 2012 1619 951 0 0 0 0 0 708 0 0 0 0 0 0 0 0 51 409 815 1240 1450 1610 1725 1631 1550 1495 1437 1412 1385 1511 1671 1754 1717 1455 1360 1294 1325 1397 1430 1485 1672 1838 1843 1635 1551 1560 1419 1242 1146 1075 905 952 862 640 714 668 651 619 532 433 407 553 502 636 516 263 361 311 234
2067 2023 2143 2089 1938 2038 2264 2376 2268 2359 2591 2430 2336 2044 1785 1751 1736 962 2 0 0 0 8 885 262 1390 7 0 0 0 0 0 109 212 19 958 1340 1478 1592 1620 1547 1445 1380 1317 1282 1354 1524 1648 1638 1508 1392 1334 1295 1325 1282 1384 1378 1261 1264 1268 1440 1490 1562 1173 1018 1006 516 687 848 672 622 645 580 480 435 534 481 371 354 314 230 180 118 53 25
2072 2048 2033 2153 2052 1987 2056 2168 2298 2390 2498 2413 2355 2206 1760 1650 1812 1342 490 137 0 0 0 38 336 522 707 441 692 259 0 0 18 0 140 38 911 1257 1397 1374 1391 1340 1311 1321 1266 1280 1382 1493 1511 1452 1416 1314 1151 1059 1146 1276 1256 1356 1452 1578 1488 1458 1376 918 712 402 242 320 408 403 403 292 216 269 440 270 292 258 140 148 188 146 59 6 8
2112 2091 2060 2094 2086 1960 1960 2060 2243 2474 2473 2394 2428 2333 2077 1742 1790 1700 1242 792 0 0 0 0 144 90 674 354 1434 226 0 0 0 0 5 121 76 573 938 1150 1184 1220 1215 1246 1292 1264 1314 1411 1418 1384 1282 1199 1071 889 965 1010 1004 1189 1448 1376 1497 1245 1135 777 502 225 242 230 189 212 260 256 284 341 351 206 164 170 135 192 198 112 73 6 1
2133 2126 2138 2116 2166 1957 1901 1990 2173 2416 2810 2491 2484 2412 2268 1930 1862 1702 1396 1317 452 0 0 0 0 3 80 0 0 0 4 63 0 0 0 0 0 16 577 688 832 909 1050 1049 1156 1170 1178 1301 1314 1298 1172 1137 1058 962 905 817 884 948 1006 1201 1312 1186 1149 723 472 294 316 378 342 249 246 244 256 290 251 214 169 131 115 74 94 82 51 19 10
2109 2142 2132 2155 2198 2121 1976 1976 2120 2343 2681 2651 2498 2482 2404 2096 1998 1777 1439 1326 809 0 0 0 0 0 1 0 5 0 0 0 1 0 0 0 0 0 0 358 0 0 441 654 840 1006 976 1082 1103 1262 1185 1065 1019 998 913 834 826 818 862 1262 1409 1346 1206 756 481 292 250 300 423 370 306 288 270 307 240 289 207 90 92 82 62 43 53 48 31
2062 2098 2136 2129 2176 2218 2155 2096 2150 2398 2723 2696 2607 2524 2479 2230 2094 1971 1640 1338 816 0 59 0 0 0 0 0 0 0 0 0 0 0 0 0 0 0 0 0 0 0 0 23 367 771 819 875 905 896 1037 948 928 875 835 804 776 700 810 1143 1522 1460 1226 896 569 294 249 320 316 370 367 340 296 167 107 137 178 128 18 21 38 5 5 19 7
2032 2024 2087 2125 2124 2213 2240 2194 2247 2400 2625 2738 2708 2609 2530 2324 2113 1982 1750 1504 973 0 0 0 0 0 0 0 0 0 0 0 0 0 0 0 0 0 0 0 0 0 0 0 2 327 648 700 742 719 748 803 759 705 662 690 683 813 1038 1122 1361 1476 1189 990 767 486 395 434 408 403 397 330 355 307 184 103 50 18 38 49 30 10 47 160 234
2008 2006 1996 2073 2115 2158 2240 2253 2272 2385 2550 2727 2736 2640 2460 2448 2260 2013 1832 1711 1333 636 434 64 0 3 7 0 0 0 0 0 0 0 0 0 0 0 0 0 0 0 0 0 0 0 31 573 578 584 560 650 634 563 520 543 567 601 1226 961 1134 1381 1219 1006 950 684 560 564 508 589 546 432 512 407 382 181 105 36 96 127 94 145 198 222 241
1933 1963 1993 2024 2078 2124 2208 2256 2273 2367 2518 2693 2774 2701 2603 2543 2494 2270 2018 1827 1569 1306 844 462 456 0 0 0 0 0 0 0 0 0 0 0 0 0 0 9 0 0 0 0 0 0 0 0 0 0 23 276 519 467 266 128 130 437 894 967 684 1000 1186 928 864 765 680 604 522 509 567 604 545 433 327 257 172 144 117 120 182 253 264 256 283
1839 1890 1948 2020 2046 2122 2227 2264 2300 2364 2498 2652 2761 2791 2746 2686 2623 2506 2219 1934 1718 1312 816 707 759 25 0 0 0 0 0 0 0 0 0 0 0 0 0 44 6 0 0 0 0 0 0 0 0 0 0 10 10 2 14 21 168 348 676 1004 599 515 903 894 607 623 589 497 482 496 481 528 614 656 643 488 326 256 218 195 219 284 325 355 408
1743 1792 1867 1992 2053 2115 2227 2295 2307 2370 2476 2616 2716 2760 2786 2770 2740 2660 2522 2190 1922 1325 910 954 1077 470 2 0 0 0 0 0 0 0 0 0 0 0 0 0 0 0 0 0 0 0 0 0 0 0 0 0 0 1 53 153 36 370 722 590 569 106 289 558 390 288 340 318 300 347 435 480 498 620 788 828 778 724 644 579 658 692 698 622 639
1650 1732 1783 1885 2033 2101 2201 2316 2348 2388 2458 2574 2682 2747 2791 2814 2834 2802 2674 2449 2077 1596 1518 1473 1385 1088 0 10 0 0 0 0 0 0 0 0 0 0 0 0 0 0 0 0 0 0 0 0 0 0 0 0 0 0 5 8 53 202 124 289 327 29 0 10 140 78 92 158 146 149 223 330 336 340 431 562 684 829 867 746 672 657 650 610 608
1532 1709 1732 1780 1920 2274 2155 2270 2359 2399 2450 2541 2630 2702 2751 2784 2808 2816 2744 2576 2290 2038 2041 1926 1724 1561 580 2 37 80 53 5 0 0 0 0 0 0 0 0 0 0 0 0 0 0 0 0 0 0 0 0 0 0 0 0 52 304 46 8 96 16 0 0 2 15 8 21 40 26 44 107 175 210 197 203 241 324 434 542 585 526 502 429 536
1519 1693 1752 1744 1827 1976 2125 2218 2319 2388 2446 2508 2607 2670 2722 2755 2756 2778 2794 2748 2587 2454 2306 2142 1984 1794 1658 460 2 57 432 664 694 192 125 26 142 572 567 0 0 0 0 0 0 0 0 0 0 0 0 0 0 0 0 0 50 183 56 0 0 22 27 0 0 0 0 0 0 0 0 0 0 6 25 37 52 74 111 156 215 261 327 340 507
1536 1670 1773 1775 1808 1885 2036 2158 2246 2325 2421 2502 2584 2660 2692 2720 2761 2772 2830 2847 2796 2684 2492 2342 2212 2110 1955 1696 905 5 15 298 690 711 624 649 719 736 777 796 590 0 0 0 0 0 0 0 0 0 0 0 0 0 0 0 2 501 82 10 0 113 156 0 0 0 0 0 0 0 0 0 0 0 0 1 11 41 82 71 49 56 63 96 169
1620 1715 1773 1787 1805 1849 1960 2085 2174 2243 2341 2480 2568 2647 2688 2708 2747 2786 2824 2866 2853 2748 2588 2475 2374 2302 2212 2065 1755 1220 503 15 123 620 706 696 705 746 782 831 868 800 460 0 0 0 0 0 0 2 12 0 0 0 0 0 0 44 269 144 62 44 58 18 0 0 0 0 0 0 0 0 0 0 0 0 0 16 79 95 50 13 5 4 10
1614 1794 1828 1842 1813 1833 1898 2017 2124 2186 2258 2378 2516 2615 2667 2690 2731 2762 2835 2898 2852 2759 2649 2578 2520 2453 2361 2253 2086 1843 1496 1114 533 32 474 697 670 698 762 814 880 898 810 663 57 0 2 0 0 0 138 462 617 516 434 399 0 36 73 196 212 128 101 54 5 0 0 0 0 0 0 0 0 0 0 0 0 0 4 20 25 6 0 0 0
1432 1735 1886 1913 1914 1875 1860 1950 2081 2172 2229 2291 2420 2544 2612 2650 2679 2722 2764 2828 2799 2740 2684 2647 2624 2548 2471 2350 2204 2065 1854 1574 1328 1016 384 192 370 616 704 776 842 899 924 863 735 548 224 8 0 0 23 45 285 568 547 558 537 352 53 136 268 250 184 90 37 15 22 0 0 0 0 0 0 0 0 0 0 0 0 0 0 0 0 0 0
1430 1562 1802 1954 1994 1966 1903 1891 1993 2151 2234 2282 2354 2470 2556 2602 2638 2669 2710 2738 2770 2760 2696 2664 2641 2563 2502 2396 2279 2144 2015 1784 1584 1458 1304 879 640 339 426 602 812 875 926 936 904 817 736 630 483 27 25 9 20 27 14 454 508 539 530 221 215 296 244 185 86 44 62 38 1 0 0 0 0 0 0 0 0 0 0 0 0 0 0 0 0
1583 1525 1678 1912 2043 2056 2002 1932 1938 2046 2182 2272 2331 2414 2500 2558 2602 2628 2653 2680 2698 2692 2689 2638 2583 2524 2463 2384 2222 2154 2042 1886 1714 1562 1491 1427 1283 1141 782 420 444 662 898 966 969 944 893 837 755 657 598 553 542 511 458 143 294 482 499 495 322 212 225 190 195 167 131 46 2 0 0 0 0 0 0 0 0 0 0 0 0 0 0 0 0
1828 1715 1655 1792 2008 2112 2105 2048 1987 2000 2107 2220 2312 2374 2456 2538 2596 2633 2659 2658 2647 2648 2626 2592 2521 2455 2415 2380 2302 2191 2057 1946 1728 1562 1467 1424 1444 1416 1392 1300 933 604 529 658 923 1012 993 962 916 846 761 719 654 585 525 462 162 340 398 420 438 244 113 134 134 198 240 186 102 29 0 0 0 0 0 0 0 0 0 0 0 0 0 0 0
1993 1938 1875 1830 1830 2050 2170 2170 2104 2061 2098 2190 2288 2373 2430 2484 2548 2598 2628 2647 2652 2637 2620 2585 2533 2476 2434 2376 2330 2246 2136 2006 1852 1663 1513 1447 1406 1369 1367 1395 1388 1298 1077 850 650 586 664 775 838 853 816 761 699 660 582 523 477 400 418 90 419 132 78 114 188 131 162 182 142 108 70 26 0 0 0 0 0 0 0 0 0 0 0 0 0
2047 2076 2038 1968 1940 1897 2000 2137 2220 2195 2172 2195 2257 2322 2393 2442 2502 2557 2576 2592 2614 2636 2647 2647 2638 2612 2547 2468 2392 2345 2266 2158 1986 1817 1637 1518 1428 1378 1344 1334 1340 1334 1308 1231 1130 987 861 699 588 529 494 495 496 516 532 553 547 504 416 165 250 258 78 72 108 229 108 83 122 94 84 22 2 197 255 0 0 0 0 0 0 0 0 0 0
1925 2072 2126 2095 2019 1962 1910 1884 1976 2078 2134 2160 2200 2264 2325 2404 2479 2536 2578 2590 2592 2603 2632 2661 2678 2688 2665 2612 2554 2495 2416 2320 2198 2041 1876 1718 1606 1516 1438 1361 1308 1282 1259 1213 1204 1158 1082 972 909 796 690 618 532 460 447 407 381 214 73 2 94 145 84 37 356 352 326 216 76 78 86 68 40 22 208 198 184 0 116 0 0 0 0 0 0
1801 1915 2064 2149 2158 2105 2042 1964 1890 1948 1977 1990 2030 2151 2260 2346 2447 2546 2608 2648 2672 2669 2662 2663 2689 2708 2714 2714 2684 2650 2608 2552 2479 2384 2272 2168 2063 1959 1838 1688 1548 1408 1302 1244 1201 1170 1118 1053 978 909 834 753 688 606 533 422 173 46 43 1 10 45 0 0 7 72 27 26 24 38 77 64 34 36 128 266 262 222 0 0 224 0 0 0 0
1831 1827 1886 2004 2135 2204 2199 2148 2057 1984 2084 2109 2073 2088 2212 2348 2421 2542 2626 2704 2744 2779 2768 2756 2747 2738 2755 2763 2772 2766 2764 2748 2724 2669 2614 2561 2478 2402 2306 2178 2034 1878 1728 1616 1531 1443 1367 1303 1227 1163 1104 1058 979 868 770 684 564 404 46 24 4 2 0 0 21 34 40 40 12 23 84 64 36 40 124 274 306 257 196 0 0 0 0 0 0
1952 1906 1857 1872 1952 2070 2168 2197 2160 2086 2056 2160 2278 2296 2286 2342 2443 2500 2599 2674 2740 2794 2836 2860 2850 2824 2805 2796 2794 2781 2771 2762 2756 2734 2732 2724 2711 2672 2617 2537 2419 2289 2141 1987 1859 1736 1670 1578 1484 1394 1337 1304 1231 1172 1112 1006 893 732 609 396 240 1 0 0 1 8 8 16 26 17 50 69 19 40 167 272 297 281 242 201 79 0 0 0 0
2048 2010 1961 1914 1894 1919 1993 2083 2152 2173 2131 2058 2142 2397 2504 2519 2504 2494 2530 2603 2657 2699 2772 2827 2872 2878 2867 2852 2833 2822 2796 2776 2762 2757 2725 2702 2688 2683 2674 2670 2626 2557 2490 2392 2298 2177 2087 2016 1882 1816 1673 1583 1501 1401 1279 1187 1096 1041 954 835 710 598 552 468 475 460 446 346 114 27 21 56 23 200 187 264 260 232 230 218 178 145 141 0 0
2090 2082 2064 2028 1964 1912 1884 1900 1960 2050 2123 2157 2141 2112 2240 2480 2602 2615 2579 2535 2556 2600 2636 2689 2746 2799 2832 2841 2830 2808 2792 2779 2766 2765 2756 2768 2735 2699 2682 2651 2646 2635 2612 2558 2500 2434 2352 2230 2096 1984 1891 1750 1758 1678 1591 1497 1444 1356 1279 1217 1175 1106 1063 1008 1005 935 888 748 607 449 285 61 16 36 40 219 195 194 192 197 185 189 210 0 0
2116 2127 2120 2097 2047 1979 1910 1859 1837 1848 1913 2011 2107 2132 2127 2091 2249 2480 2565 2518 2477 2489 2531 2569 2599 2635 2683 2723 2755 2770 2760 2757 2761 2763 2759 2760 2732 2718 2696 2673 2636 2598 2547 2521 2511 2552 2583 2643 2660 2636 2675 2627 2562 2537 2536 2400 2338 2191 2084 2008 1920 1827 1739 1632 1473 1356 1228 1080 989 856 706 560 220 42 40 91 116 147 167 189 222 212 203 200 0
2109 2105 2098 2064 2056 2036 2000 1929 1850 1799 1800 1856 1941 2031 2108 2142 2117 2072 2241 2387 2400 2420 2448 2486 2519 2531 2553 2605 2652 2690 2724 2737 2756 2768 2774 2750 2716 2692 2709 2710 2697 2856 2932 3032 3086 3103 3085 3048 3028 2948 2934 2959 2908 2888 2845 2701 2595 2510 2456 2312 2202 2142 2056 1947 1886 1726 1613 1496 1300 1107 1028 900 684 414 68 62 20 79 180 214 263 260 235 239 213
2135 2105 2064 2034 2006 1994 1982 1957 1921 1867 1803 1774 1801 1915 2038 2106 2132 2144 2126 2109 2159 2260 2346 2422 2474 2522 2563 2598 2626 2662 2687 2720 2754 2782 2806 2822 2816 2821 2814 2970 3090 3168 3236 3260 3182 3196 3180 3208 3224 3201 3210 3251 3220 3157 3114 3033 2938 2714 2240 2170 2136 2158 2068 1970 1985 1865 1700 1550 1308 1209 962 1016 844 790 734 294 66 19 6 0 61 271 297 347 361
2567 2304 2092 2030 1976 1917 1881 1876 1880 1898 1882 1841 1815 1779 1800 2022 2124 2178 2216 2219 2228 2236 2262 2296 2354 2438 2512 2570 2602 2649 2681 2714 2744 2790 2842 2886 2885 2937 3074 3182 3278 3310 3342 3265 3325 3417 3480 3466 3488 3453 3318 3114 3149 2979 2907 2956 2860 2808 2742 2372 2320 2428 2279 2212 1926 1697 1582 1504 1251 1216 1062 1063 1246 987 830 649 36 133 14 0 0 0 303 384 395
3000 2805 2549 2218 2023 1926 1866 1809 1791 1806 1829 1846 1845 1839 1808 1769 1932 2085 2180 2226 2261 2284 2303 2311 2332 2368 2443 2511 2592 2648 2694 2720 2746 2774 2723 2896 3030 3135 3213 3262 3334 3418 3509 3466 3516 3576 3635 3542 3407 3060 2961 3074 3095 3001 2903 2962 2783 2601 2554 2506 2504 2484 2470 2483 1958 1849 1544 1764 1712 1596 1595 1551 1516 1326 1108 878 545 312 0 0 0 167 244 352 385
Wind_Speed
16 16 14 16 16 15 16 18 17 17 16 16 15 15 14 14 14 12 10 10 9 10 11 12 12 14 13 14 15 15 15 14 13 12 12 13 14 15 16 14 13 13 14 11 11 11 11 11 11 10 10 10 10 10 10 11 11 11 11 11 12 12 12 11 10 9 9 8 8 8 9 9 9 8 7 6 4 6 6 8 9 9 10 11 11
16 16 15 16 15 16 16 17 18 18 17 18 17 15 16 14 13 11 10 10 10 11 10 12 12 13 13 14 14 15 14 14 13 13 14 14 15 15 17 16 14 15 14 14 12 11 11 11 11 10 11 10 11 11 12 12 12 13 13 14 14 15 15 15 15 14 14 14 13 13 13 13 14 15 14 14 13 14 15 14 13 14 14 14 15
15 16 16 16 15 15 17 16 18 19 18 19 16 16 15 15 15 13 12 11 12 12 10 11 12 12 13 13 14 13 13 13 13 13 14 16 16 16 15 17 16 16 15 14 13 12 12 12 11 10 11 11 12 13 14 15 15 15 15 15 15 16 16 16 17 17 17 17 16 16 15 16 16 18 19 19 20 20 20 19 18 18 17 16 15
15 16 16 15 15 15 16 16 19 18 17 17 17 15 14 14 14 13 12 11 11 11 10 10 11 12 12 12 12 12 12 12 12 13 14 15 16 16 16 16 18 16 15 15 14 14 14 13 12 11 11 12 13 14 15 16 17 16 17 17 16 17 17 17 17 17 17 17 17 17 16 16 17 18 19 20 21 21 21 20 19 19 18 17 16
16 16 15 15 16 15 16 17 18 18 16 16 16 15 13 12 13 12 12 12 11 11 10 11 12 12 11 11 11 12 11 12 11 12 13 15 16 16 16 15 15 17 17 16 16 16 16 15 14 13 12 12 13 15 16 17 17 17 18 18 17 19 17 19 18 18 18 16 17 17 17 17 17 18 18 19 20 20 20 20 18 17 17 17 17
15 16 15 16 17 16 16 17 16 15 16 16 15 15 15 14 14 13 15 14 15 13 11 12 13 12 11 11 11 11 11 12 12 12 13 14 15 15 16 15 15 14 14 17 18 18 18 17 16 15 14 14 14 15 16 16 17 17 18 19 18 18 19 19 19 19 18 17 16 17 17 16 17 17 18 18 18 18 17 16 16 16 16 16 16
16 16 15 16 17 17 17 18 17 16 17 17 15 14 15 16 14 15 16 16 15 14 13 13 12 13 12 11 11 11 11 12 11 12 13 13 13 14 14 14 14 13 13 13 16 18 18 18 18 17 17 16 16 16 17 17 17 17 18 18 18 18 18 19 18 17 16 16 16 16 16 16 16 16 16 16 16 15 13 14 15 14 15 16 16
16 15 14 17 18 17 18 17 16 16 18 17 15 16 15 15 17 15 15 17 15 17 15 14 13 14 12 12 11 11 11 10 11 12 12 11 12 13 13 13 14 13 13 12 13 14 17 17 17 18 18 17 17 17 17 17 16 17 16 16 16 16 18 17 16 16 15 16 16 16 15 15 14 15 14 14 13 13 13 13 13 12 13 13 14
14 14 14 15 16 17 16 15 15 16 16 15 14 15 13 14 15 14 14 nan nan nan 14 13 14 14 11 12 11 10 10 11 11 11 10 11 11 11 12 13 13 15 12 11 12 12 14 17 18 18 19 18 17 17 17 16 15 16 13 16 17 15 15 15 14 15 15 15 14 15 14 13 12 12 11 11 11 10 11 11 11 11 11 11 11
12 12 13 14 14 13 14 14 15 15 15 13 13 12 12 12 12 12 12 nan nan nan nan 13 12 12 11 11 11 10 10 9 10 10 10 11 10 12 13 13 13 12 12 12 12 12 12 15 18 19 19 19 18 18 17 15 15 16 15 17 17 16 15 15 13 15 14 14 15 14 14 13 12 12 10 10 9 8 8 9 8 9 9 8 8
11 11 11 12 12 10 15 14 13 14 13 13 12 12 12 10 9 nan nan nan nan nan nan nan 9 9 9 9 9 11 8 7 9 9 11 10 10 12 11 13 13 12 12 12 12 11 12 13 14 13 13 17 18 18 17 17 17 17 17 16 17 16 16 15 15 15 15 14 12 12 11 10 9 9 10 10 9 8 8 8 8 8 8 8 9
10 10 10 9 10 12 13 13 14 13 13 14 16 14 14 12 11 nan nan 6 nan nan nan nan nan 4 5 6 8 8 7 7 7 9 10 10 10 11 13 12 13 12 12 12 12 11 11 13 13 13 12 14 16 17 18 17 18 18 17 17 16 15 14 14 13 12 13 12 12 11 10 9 9 10 10 9 9 9 9 8 8 8 9 10 10
9 8 10 9 10 11 12 13 14 15 15 17 16 14 12 11 10 11 nan nan nan nan nan nan nan nan nan 5 6 7 7 6 8 10 11 11 11 13 13 13 13 12 12 12 12 11 11 11 12 11 12 12 13 15 17 17 16 16 17 16 16 15 13 13 12 12 12 12 12 11 9 7 7 8 9 9 8 7 7 8 8 8 9 9 9
9 8 9 9 9 10 12 14 15 17 17 16 15 14 11 10 11 11 13 nan nan nan nan nan nan nan nan nan 7 8 8 8 10 12 12 11 13 14 14 13 13 13 12 13 13 12 11 11 11 11 11 11 12 11 11 12 12 13 15 15 14 14 13 12 12 11 11 11 9 7 8 8 8 8 8 7 7 7 8 7 8 8 9 11 10
9 9 8 9 9 9 11 12 15 16 14 15 15 16 13 12 12 12 nan nan 9 nan nan nan nan nan nan nan nan 9 11 10 12 14 13 11 12 15 14 13 14 13 13 14 14 13 12 11 11 12 12 11 12 12 11 11 11 13 14 13 13 13 12 12 11 11 10 10 8 8 8 9 10 10 9 9 9 9 10 11 11 11 12 12 12
8 9 9 9 9 10 9 11 14 14 14 15 15 16 14 13 12 13 nan nan nan nan 10 nan nan nan nan nan nan nan 10 15 15 14 11 11 12 15 14 14 14 13 12 15 15 14 14 12 12 12 12 11 12 12 12 11 13 16 16 14 13 13 13 12 12 10 10 10 10 10 11 12 13 12 13 13 13 12 12 12 12 12 11 11 12
8 9 9 10 10 8 8 11 13 13 13 15 15 17 16 16 15 13 nan nan nan nan nan 10 nan nan nan nan nan nan nan nan nan 15 11 12 14 15 14 14 13 13 14 16 14 14 14 13 13 12 12 11 11 11 11 11 11 11 13 15 15 13 13 14 14 13 13 14 14 15 16 15 15 16 15 15 14 13 12 11 10 10 10 12 13
7 8 9 9 10 8 7 9 11 12 14 15 15 14 15 16 17 16 nan nan nan nan nan 11 11 12 nan nan nan nan nan nan 8 14 nan 13 14 14 15 14 13 14 14 14 14 13 13 14 12 13 12 11 11 11 12 11 11 12 14 14 18 15 14 14 15 16 16 16 16 16 16 17 16 16 15 14 13 12 12 11 12 12 13 nan nan
7 7 9 9 10 8 7 9 10 12 13 13 14 15 16 17 17 16 17 13 nan nan nan nan 10 10 11 10 10 10 nan nan nan nan 13 nan 15 16 17 15 14 14 15 15 14 13 14 13 13 13 12 11 12 12 13 13 15 16 19 19 20 18 17 16 18 18 18 17 17 17 17 17 17 16 15 15 14 14 14 15 16 16 nan nan nan
6 7 8 9 9 9 7 8 10 12 13 14 14 15 14 15 16 18 16 14 nan nan nan nan 6 nan 9 9 9 9 nan nan nan nan nan 13 nan 14 14 15 15 16 17 17 16 15 15 14 13 13 13 12 13 13 13 14 14 15 17 21 22 22 21 20 21 21 21 20 19 19 19 18 18 18 17 18 18 18 18 18 19 19 nan nan nan
6 7 8 8 9 9 8 8 10 11 13 13 14 13 14 15 15 15 15 15 14 nan nan nan nan nan nan nan nan nan nan nan nan nan nan nan nan nan 16 11 13 16 18 17 16 15 15 14 13 13 13 13 13 13 13 13 14 15 17 23 23 24 24 23 23 25 24 23 22 21 21 20 20 21 21 20 20 21 21 nan nan nan nan nan nan
6 7 7 8 9 9 8 9 10 11 12 14 13 13 13 13 15 15 14 15 14 nan nan nan nan nan nan nan nan nan nan nan nan nan nan nan nan nan nan 14 nan nan 15 17 16 15 14 13 13 13 13 13 13 13 13 14 14 15 17 22 24 25 25 24 25 26 26 25 24 24 23 23 23 23 23 23 23 nan nan nan nan nan nan nan nan
6 7 8 9 10 9 9 10 9 11 12 13 15 15 14 14 13 12 13 14 14 nan nan nan nan nan nan nan nan nan nan nan nan nan nan nan nan nan nan nan nan nan nan nan 15 15 14 13 14 14 13 13 13 13 14 15 16 17 21 21 23 23 25 26 26 27 26 25 26 27 27 27 26 26 27 26 27 27 nan nan nan nan nan nan nan
6 8 10 11 11 12 12 11 11 12 14 14 15 15 14 13 12 12 12 12 11 nan nan nan nan nan nan nan nan nan nan nan nan nan nan nan nan nan nan nan nan nan nan nan nan 12 13 15 15 15 15 14 14 14 15 15 16 22 20 22 24 24 25 27 27 27 27 26 26 28 29 29 30 29 29 29 nan nan nan nan nan nan nan 32 31
9 11 13 13 14 15 15 15 15 15 15 15 16 15 14 14 13 13 12 12 12 11 11 nan nan nan nan nan nan nan nan nan nan nan nan nan nan nan nan nan nan nan nan nan nan nan nan 14 15 15 15 16 16 16 17 17 17 20 24 20 27 26 27 27 28 28 29 29 29 30 30 30 30 29 29 30 31 nan nan 32 nan 33 33 32 33
10 13 13 13 15 16 15 16 15 15 16 16 17 16 15 15 15 14 14 13 10 10 11 9 8 nan nan nan nan nan nan nan nan nan nan nan nan nan nan nan nan nan nan nan nan nan nan nan nan nan nan 15 16 16 17 18 18 22 26 22 24 28 29 30 30 30 31 32 32 31 31 30 31 31 31 30 31 31 31 31 32 33 33 34 34
11 12 11 13 13 13 14 14 14 14 14 15 15 16 16 15 16 16 15 13 13 11 9 8 8 nan nan nan nan nan nan nan nan nan nan nan nan nan nan nan nan nan nan nan nan nan nan nan nan nan nan nan nan nan nan nan 20 23 25 22 22 27 30 31 31 32 32 32 31 31 31 31 31 31 32 32 31 32 31 31 32 32 32 32 31
11 9 10 10 10 11 11 12 11 11 12 13 13 14 14 15 15 16 17 14 15 14 12 9 9 8 nan nan nan nan nan nan nan nan nan nan nan nan nan nan nan nan nan nan nan nan nan nan nan nan nan nan nan nan nan 18 nan 23 25 21 22 23 28 30 30 30 30 30 30 31 31 32 32 32 32 32 32 32 32 32 32 32 32 32 31
10 10 8 8 8 7 8 9 9 9 10 11 12 12 13 14 15 15 17 16 17 17 14 13 10 9 nan nan nan nan nan nan nan nan nan nan nan nan nan nan nan nan nan nan nan nan nan nan nan nan nan nan nan nan nan nan nan 21 19 21 22 nan nan nan 29 nan nan 30 30 31 32 33 33 33 34 34 34 34 35 35 35 34 34 34 33
9 9 7 6 5 5 5 6 7 8 9 10 11 12 13 13 14 15 15 15 16 16 17 16 13 11 9 nan nan nan nan nan nan nan nan nan nan nan nan nan nan nan nan nan nan nan nan nan nan nan nan nan nan nan nan nan nan 22 nan nan nan nan nan nan nan nan nan nan nan nan nan 33 34 34 34 35 35 35 36 36 36 37 36 36 36
8 7 5 4 2 3 4 5 6 8 9 10 10 11 13 13 13 14 14 14 15 16 17 18 16 13 11 10 nan nan 9 10 10 12 12 nan 15 14 15 nan nan nan nan nan nan nan nan nan nan nan nan nan nan nan nan nan nan 21 nan nan nan nan nan nan nan nan nan nan nan nan nan nan nan nan nan nan nan nan 37 38 38 39 39 39 39
7 5 4 2 1 3 3 5 7 8 9 10 11 11 12 13 14 14 15 15 15 15 16 17 17 16 13 12 11 nan nan 7 8 9 11 11 12 13 13 14 14 nan nan nan nan nan nan nan nan nan nan nan nan nan nan nan nan 21 nan nan nan 23 22 nan nan nan nan nan nan nan nan nan nan nan nan nan nan nan nan nan nan nan nan nan 41
6 4 2 0 2 4 5 6 7 9 10 11 12 12 12 12 13 13 14 15 16 14 14 16 17 17 15 13 12 11 8 nan 9 9 10 10 9 11 10 12 13 12 14 nan nan nan nan nan nan nan nan nan nan nan nan nan nan nan 20 21 nan nan nan nan nan nan nan nan nan nan nan nan nan nan nan nan nan nan nan nan nan nan nan nan nan
6 4 2 3 3 5 6 7 8 8 10 11 12 13 12 12 12 12 13 15 14 14 14 15 16 17 16 13 11 10 9 10 9 nan 11 10 10 10 10 11 12 12 13 14 nan nan nan nan nan nan 11 14 13 15 19 19 nan nan nan 22 22 24 24 nan nan nan nan nan nan nan nan nan nan nan nan nan nan nan nan nan nan nan nan nan nan
8 5 5 4 5 6 6 7 8 8 9 10 11 13 13 13 12 11 12 13 14 13 14 15 16 16 16 14 11 9 8 9 10 11 10 11 10 11 11 11 12 12 13 14 13 13 13 nan nan nan nan nan 18 16 18 19 19 21 nan 23 24 24 25 nan nan nan nan nan nan nan nan nan nan nan nan nan nan nan nan nan nan nan nan nan nan
7 7 7 6 6 7 7 7 8 8 9 9 10 11 12 13 12 12 11 12 12 11 12 13 13 15 17 14 11 9 8 9 10 11 11 11 12 12 12 12 13 14 13 13 14 14 12 13 12 nan nan nan nan nan nan 19 21 22 25 25 24 25 26 28 nan nan nan nan nan nan nan nan nan nan nan nan nan nan nan nan nan nan nan nan nan
8 9 8 8 7 7 7 7 7 7 8 10 11 11 11 11 11 11 10 10 10 10 10 10 11 13 15 15 12 8 8 9 9 11 12 13 13 13 14 13 14 14 13 15 15 15 14 15 12 15 16 16 17 18 21 21 21 23 25 28 29 29 29 30 31 32 33 nan nan nan nan nan nan nan nan nan nan nan nan nan nan nan nan nan nan
8 8 8 8 8 6 6 5 6 7 8 9 10 11 11 10 9 9 8 8 8 9 9 9 10 11 13 13 11 8 7 8 10 11 12 13 12 13 13 14 14 14 14 15 16 16 16 15 15 13 19 20 18 20 24 27 25 24 25 28 29 31 31 31 32 33 35 35 35 nan nan nan nan nan nan nan nan nan nan nan nan nan nan nan nan
8 8 8 7 7 7 5 5 5 6 7 8 8 9 10 10 9 8 7 7 7 7 7 9 9 10 11 11 9 7 7 7 9 11 12 11 12 13 13 14 14 15 15 16 17 17 17 16 15 17 16 20 24 19 22 27 26 27 27 nan 28 32 nan 35 33 34 36 36 37 40 nan nan nan nan nan nan nan nan nan nan nan nan nan nan nan
8 7 7 7 7 8 6 5 5 6 6 7 8 9 9 9 8 7 6 6 6 6 5 6 8 9 10 9 8 6 7 8 9 10 11 11 11 11 11 12 13 15 15 16 17 17 17 16 17 15 18 18 21 23 24 28 25 24 30 33 29 29 nan nan 36 35 37 nan 37 nan nan nan nan 38 38 nan nan nan nan nan nan nan nan nan nan
9 7 7 7 7 6 6 6 5 6 6 6 7 8 9 9 8 6 5 4 4 4 4 4 6 7 7 7 7 8 10 12 14 12 11 12 11 11 12 14 14 16 15 16 18 18 18 18 16 17 18 20 22 24 26 31 33 31 nan nan nan 30 nan nan 33 36 38 39 nan nan nan nan nan nan 38 39 41 nan 41 nan nan nan nan nan nan
7 7 7 6 6 6 6 5 5 6 6 6 7 11 10 8 8 6 4 3 3 3 3 3 3 4 5 5 7 13 14 15 15 15 16 17 17 15 13 16 18 19 19 19 21 22 22 21 21 20 21 22 23 27 28 30 33 nan nan nan nan nan nan nan nan nan nan nan nan nan nan nan nan nan 40 39 40 44 nan nan 43 nan nan nan nan
7 7 6 5 5 6 5 5 5 5 6 6 10 11 11 11 7 5 3 2 3 2 1 1 2 3 4 6 7 9 11 12 13 17 18 18 19 20 20 20 21 23 21 22 22 24 25 25 23 24 24 21 22 26 29 29 33 36 nan nan nan nan nan nan nan nan nan nan nan nan nan nan nan nan 41 39 41 44 45 nan nan nan nan nan nan
7 7 5 5 5 6 6 5 4 5 6 7 10 10 11 11 8 4 2 2 2 1 1 2 3 3 5 5 6 6 8 11 11 11 14 17 18 19 20 21 23 24 26 26 24 25 27 26 25 26 26 25 23 26 29 32 33 37 39 41 42 nan nan nan nan nan nan nan nan nan nan nan nan nan 40 39 41 44 46 46 nan nan nan nan nan
9 6 5 5 5 6 5 5 4 5 5 7 9 9 9 10 10 6 1 0 0 2 3 4 5 5 5 6 6 7 7 12 12 12 12 14 18 21 22 22 23 25 25 27 29 28 28 28 27 25 29 29 27 27 32 35 39 39 43 44 45 46 46 46 43 40 43 53 52 nan nan nan nan 45 40 38 42 44 45 46 48 50 51 nan nan
7 5 6 5 6 7 6 6 5 4 4 4 8 8 8 9 9 7 3 3 3 4 5 5 5 7 8 8 7 7 7 9 12 14 15 16 17 19 22 24 25 26 27 28 28 27 27 28 27 25 26 35 32 31 34 42 44 43 45 45 47 47 48 49 47 45 50 60 56 54 47 nan nan nan nan 38 43 44 45 48 49 50 51 nan nan
7 7 7 7 7 8 7 7 6 4 3 3 5 6 6 7 7 6 2 4 5 6 6 5 6 8 8 8 7 7 8 11 14 16 17 18 19 19 20 22 26 27 27 28 30 33 32 32 30 29 27 32 36 35 35 43 46 44 46 46 46 46 46 48 46 47 52 58 59 61 48 48 51 nan nan nan 45 45 47 48 50 51 52 52 nan
9 10 10 9 8 7 7 7 7 4 3 3 5 4 5 5 7 4 0 3 4 6 6 5 6 6 6 7 7 8 10 13 16 20 21 21 21 20 20 20 21 23 25 28 31 33 33 34 34 34 32 33 38 39 39 43 46 46 47 48 46 46 49 52 48 49 52 60 63 62 53 50 53 47 nan nan nan nan 48 49 51 53 53 53 54
11 10 10 11 10 10 10 9 7 6 6 6 6 5 5 8 9 4 3 1 2 4 5 4 4 5 5 7 9 10 12 14 17 20 23 25 22 21 21 20 20 21 21 30 35 34 33 35 36 37 36 36 38 39 40 44 48 48 52 53 51 52 56 54 51 54 58 66 61 62 60 53 58 56 49 49 nan nan nan nan nan 54 54 54 55
11 11 13 14 14 13 12 9 8 8 8 10 9 7 7 10 9 6 5 3 1 1 2 2 2 3 5 9 11 12 13 15 17 21 24 28 24 22 22 21 19 20 23 33 37 36 38 38 39 40 40 39 39 40 40 41 43 47 54 54 51 54 58 62 60 66 66 68 63 70 67 60 64 64 61 61 nan 58 nan nan nan nan 59 56 55
12 14 16 16 15 15 13 11 9 8 9 9 8 8 9 11 9 8 7 5 3 2 2 1 3 5 7 9 11 14 15 15 18 22 25 29 25 24 26 26 23 21 25 35 37 38 38 37 34 37 37 37 37 40 39 37 38 42 50 51 49 52 54 58 65 68 64 61 68 76 69 63 63 61 64 64 59 58 nan nan nan 64 64 64 61
Wind_Direction
77 75 72 73 77 80 82 81 78 73 70 71 65 69 73 69 70 74 79 81 77 76 82 78 76 81 81 84 85 85 86 89 89 87 86 87 88 82 63 61 65 72 68 63 63 65 66 65 65 63 63 59 60 61 62 62 64 67 66 65 65 64 61 61 68 76 86 93 98 95 89 82 79 72 66 67 78 112 127 122 115 115 108 105 100
76 76 70 73 75 78 79 76 71 72 68 68 64 61 65 69 71 72 73 77 79 79 78 84 82 80 80 76 77 78 82 84 83 81 83 86 87 91 67 67 64 65 68 68 66 68 70 68 66 66 69 70 72 71 72 73 74 74 73 72 72 72 72 73 76 82 90 92 95 95 94 91 86 85 85 87 95 105 109 109 106 101 100 99 96
72 73 73 74 76 79 80 78 75 71 65 65 63 59 61 64 66 69 68 68 74 78 76 78 79 80 78 76 77 80 83 85 83 80 77 75 82 88 86 65 69 68 70 71 72 72 73 74 72 72 73 71 73 77 79 81 80 80 80 80 78 77 80 80 82 86 89 92 94 92 92 88 86 85 87 91 96 99 103 105 105 105 103 100 94
67 69 70 74 80 81 82 81 79 76 67 67 65 61 59 66 70 73 74 74 78 79 84 80 81 77 77 76 79 78 78 80 79 80 80 79 78 80 88 85 71 71 73 73 72 73 76 77 79 79 79 78 78 80 81 83 85 86 84 83 85 87 84 83 86 88 91 93 91 91 90 88 85 85 86 89 92 96 98 99 101 103 103 100 96
65 64 68 72 81 86 85 79 77 77 72 68 69 69 65 68 71 73 73 75 81 86 89 85 85 83 78 76 69 71 73 75 76 79 79 79 78 80 84 85 85 73 69 71 70 71 74 78 81 83 83 82 82 83 86 86 85 83 82 83 82 81 84 88 86 86 85 87 88 88 88 88 86 85 86 87 90 91 95 98 101 102 102 100 96
65 66 67 74 83 84 80 79 78 79 78 74 68 70 73 75 74 73 72 69 74 78 76 81 87 90 85 80 73 69 67 70 73 72 77 76 78 78 79 82 80 82 82 69 70 71 71 75 81 87 91 91 89 88 89 90 89 87 87 84 81 80 83 82 85 83 83 84 85 85 86 86 88 88 87 88 88 91 94 94 93 93 92 93 90
65 64 69 74 80 81 78 74 74 81 81 79 71 71 67 68 70 65 73 74 74 78 76 75 80 81 84 79 76 75 76 74 76 77 76 77 75 77 77 76 78 77 81 83 77 71 72 75 79 85 92 96 97 95 93 91 90 91 90 87 83 85 77 81 80 82 84 83 82 82 82 83 85 88 90 93 94 94 91 91 91 90 90 87 84
63 64 67 73 77 75 70 72 76 82 86 87 82 69 63 62 66 62 69 73 68 74 74 73 73 79 84 81 84 84 77 82 80 80 80 76 75 77 74 75 75 75 73 76 81 83 74 77 79 84 89 93 96 97 98 96 98 101 100 107 104 96 96 83 79 83 83 82 81 79 80 80 83 87 90 94 93 93 90 92 93 89 85 84 83
62 66 70 71 71 69 68 68 73 74 80 83 79 73 61 61 65 65 58 nan nan nan 71 69 70 76 81 85 89 89 87 85 87 84 82 76 75 76 75 75 77 74 80 79 81 83 82 80 81 80 84 87 92 97 99 99 98 93 93 88 88 85 87 95 89 82 77 79 78 78 77 78 76 79 84 87 88 87 89 89 88 84 84 83 79
70 72 79 79 74 73 79 68 69 67 71 77 75 77 72 68 66 65 51 nan nan nan nan 65 69 72 77 82 87 89 86 88 88 83 72 72 72 73 73 76 78 83 82 84 83 81 84 87 86 85 85 87 91 94 97 96 90 89 83 78 77 74 76 79 80 80 76 73 73 72 74 77 72 71 72 75 79 83 82 82 80 74 68 66 62
78 83 84 88 83 70 70 73 69 65 66 70 70 75 80 81 73 nan nan nan nan nan nan nan 61 69 70 79 81 85 88 84 80 77 73 75 70 71 76 78 79 81 85 88 89 84 83 84 88 90 90 89 90 91 93 93 92 90 89 83 80 78 77 73 71 70 74 72 75 76 77 77 73 67 60 63 63 58 53 53 48 43 35 32 25
77 88 93 93 85 78 75 76 68 65 63 68 72 71 68 77 82 nan nan 62 nan nan nan nan nan 84 87 102 97 98 93 88 77 78 79 78 75 71 68 74 76 82 86 88 88 88 86 86 85 84 86 91 90 88 92 92 91 93 92 90 86 81 77 78 73 66 71 70 64 63 61 56 58 53 52 45 39 37 35 30 25 22 21 12 11
77 89 94 94 85 79 74 71 65 60 61 66 69 66 67 69 78 81 nan nan nan nan nan nan nan nan nan 113 107 106 95 85 85 81 76 72 68 68 68 67 72 78 83 86 88 89 89 88 88 87 85 85 90 93 91 88 91 92 95 93 91 88 78 73 65 59 62 60 55 48 37 41 46 43 35 35 29 15 10 10 6 6 358 359 346
73 81 93 89 84 77 70 65 61 60 65 75 75 73 64 67 73 87 91 nan nan nan nan nan nan nan nan nan 109 113 95 90 92 87 77 67 62 65 67 67 71 74 79 80 84 85 87 87 89 86 83 81 82 84 90 86 88 89 85 88 87 82 75 67 62 59 56 53 50 23 34 27 35 35 30 11 7 10 5 1 2 356 342 337 334
70 72 79 86 80 73 70 67 63 62 68 77 78 76 67 62 64 69 nan nan 82 nan nan nan nan nan nan nan nan 97 101 104 97 90 83 74 67 69 69 69 71 71 71 74 77 78 79 79 82 83 80 77 76 76 76 72 65 68 68 71 74 73 68 64 58 51 51 53 43 40 30 34 35 32 11 7 7 3 1 357 353 346 341 340 336
67 69 78 79 76 71 71 67 65 65 63 71 76 76 70 67 68 76 nan nan nan nan 87 nan nan nan nan nan nan nan 101 99 90 98 91 83 74 74 75 75 75 76 73 71 70 70 72 72 75 76 77 75 73 72 69 68 70 68 65 58 57 60 61 58 50 46 44 40 30 26 23 26 24 21 17 12 10 5 1 355 349 347 344 339 336
65 65 71 72 76 73 66 64 63 62 64 70 72 71 68 66 64 71 nan nan nan nan nan 94 nan nan nan nan nan nan nan nan nan 103 100 91 82 77 77 77 78 74 70 71 71 68 67 69 71 73 74 73 74 74 72 73 74 79 73 64 56 48 51 48 41 30 31 27 23 21 21 20 20 19 19 19 15 13 7 359 356 357 356 353 354
70 66 70 78 76 72 69 63 62 57 58 64 68 73 69 68 66 65 nan nan nan nan nan 103 95 95 nan nan nan nan nan nan 88 92 nan 83 87 82 77 74 72 72 71 72 69 69 68 66 64 65 67 66 66 67 67 66 68 68 66 61 53 42 44 36 31 28 27 26 23 23 22 24 24 25 23 20 17 16 14 13 10 5 4 nan nan
69 70 73 77 79 78 67 64 60 53 55 58 64 65 63 65 69 68 69 76 nan nan nan nan 108 101 93 92 94 96 nan nan nan nan 90 nan 81 75 77 74 71 71 72 71 69 65 67 65 62 63 62 60 59 58 56 55 54 52 54 47 48 36 33 20 26 29 27 26 24 23 25 24 25 25 23 22 22 19 18 15 14 11 nan nan nan
67 68 72 77 79 77 68 62 58 55 51 50 55 62 64 68 67 68 70 69 nan nan nan nan 58 nan 93 92 98 106 nan nan nan nan nan 75 nan 86 81 72 70 70 67 68 64 61 61 63 65 63 57 53 51 48 46 46 46 45 44 41 41 34 30 22 24 28 29 28 27 27 28 28 27 26 25 25 22 18 17 15 13 13 nan nan nan
79 70 74 76 78 74 68 63 60 57 54 51 54 54 55 59 64 70 69 72 71 nan nan nan nan nan nan nan nan nan nan nan nan nan nan nan nan nan 73 79 72 70 65 61 60 56 54 55 56 55 51 46 41 40 36 35 37 35 34 34 33 32 29 25 26 29 30 31 30 30 30 29 28 26 23 23 19 17 15 nan nan nan nan nan nan
91 90 84 80 77 76 70 62 60 59 56 52 51 49 53 54 57 59 62 65 72 nan nan nan nan nan nan nan nan nan nan nan nan nan nan nan nan nan nan 50 nan nan 58 57 54 52 47 47 47 46 45 42 33 31 29 27 26 28 32 32 31 30 29 26 26 28 30 30 30 29 29 29 27 25 23 22 20 nan nan nan nan nan nan nan nan
93 91 84 79 78 75 68 63 57 57 54 51 48 45 45 44 48 54 57 55 59 nan nan nan nan nan nan nan nan nan nan nan nan nan nan nan nan nan nan nan nan nan nan nan 47 45 38 33 37 38 35 35 29 22 25 25 24 26 30 34 34 31 30 28 27 29 29 30 30 30 30 30 28 26 24 23 22 21 nan nan nan nan nan nan nan
106 95 88 82 80 77 72 65 56 53 51 48 47 42 41 38 34 38 49 55 55 nan nan nan nan nan nan nan nan nan nan nan nan nan nan nan nan nan nan nan nan nan nan nan nan 40 33 29 30 30 30 28 27 22 24 25 28 32 31 34 35 34 33 32 30 31 33 33 33 34 33 32 31 30 29 28 nan nan nan nan nan nan nan 23 19
104 93 89 80 80 78 73 67 62 55 52 49 49 42 36 33 29 29 33 38 41 42 43 nan nan nan nan nan nan nan nan nan nan nan nan nan nan nan nan nan nan nan nan nan nan nan nan 34 25 25 24 24 24 21 24 26 30 34 33 33 35 35 34 34 33 33 34 34 34 34 34 33 31 29 30 30 30 nan nan 28 nan 25 23 20 17
94 88 87 82 81 75 72 68 62 56 50 47 47 44 37 32 28 26 25 28 26 32 39 44 46 nan nan nan nan nan nan nan nan nan nan nan nan nan nan nan nan nan nan nan nan nan nan nan nan nan nan 23 22 19 22 27 30 37 35 31 34 35 35 34 34 33 32 31 30 30 31 32 32 30 28 27 27 26 25 24 22 21 19 16 15
93 91 89 79 74 70 66 61 57 50 45 42 41 39 37 33 30 29 25 17 16 15 28 26 34 nan nan nan nan nan nan nan nan nan nan nan nan nan nan nan nan nan nan nan nan nan nan nan nan nan nan nan nan nan nan nan 31 33 34 31 30 33 33 31 30 29 28 27 27 28 29 29 29 28 25 23 21 21 20 18 18 16 15 15 13
111 107 89 77 68 61 55 51 44 38 33 29 26 25 25 24 26 25 26 19 13 10 12 10 23 24 nan nan nan nan nan nan nan nan nan nan nan nan nan nan nan nan nan nan nan nan nan nan nan nan nan nan nan nan nan 28 nan 32 32 27 27 27 29 27 26 24 24 24 25 26 26 26 25 24 23 21 18 16 15 14 12 11 11 11 11
119 112 95 84 69 53 43 38 30 24 18 13 10 9 6 8 10 14 20 18 16 16 6 3 10 4 nan nan nan nan nan nan nan nan nan nan nan nan nan nan nan nan nan nan nan nan nan nan nan nan nan nan nan nan nan nan nan 26 24 24 23 nan nan nan 23 nan nan 24 24 25 25 25 24 22 22 20 19 17 16 15 13 12 10 9 8
122 116 104 82 71 45 29 21 13 4 6 359 355 353 349 354 356 359 4 4 12 15 11 6 4 355 0 nan nan nan nan nan nan nan nan nan nan nan nan nan nan nan nan nan nan nan nan nan nan nan nan nan nan nan nan nan nan 23 nan nan nan nan nan nan nan nan nan nan nan nan nan 21 20 20 19 18 18 17 16 15 13 11 9 8 6
132 126 117 100 67 36 9 2 348 352 349 348 342 340 338 342 343 345 344 349 358 9 11 7 7 356 357 9 nan nan 29 29 29 27 27 nan 27 25 29 nan nan nan nan nan nan nan nan nan nan nan nan nan nan nan nan nan nan 16 nan nan nan nan nan nan nan nan nan nan nan nan nan nan nan nan nan nan nan nan 13 12 11 9 8 6 5
142 140 140 115 43 3 347 343 340 336 336 338 333 333 331 334 333 335 335 336 346 358 4 5 5 2 2 8 14 nan nan 27 35 34 34 30 23 23 25 24 28 nan nan nan nan nan nan nan nan nan nan nan nan nan nan nan nan 12 nan nan nan 13 8 nan nan nan nan nan nan nan nan nan nan nan nan nan nan nan nan nan nan nan nan nan 6
169 169 172 330 337 338 332 329 333 329 329 330 326 324 327 330 327 330 325 329 340 349 351 2 4 5 8 11 18 23 11 nan 29 33 34 34 27 28 23 21 29 23 17 nan nan nan nan nan nan nan nan nan nan nan nan nan nan nan 2 3 nan nan nan nan nan nan nan nan nan nan nan nan nan nan nan nan nan nan nan nan nan nan nan nan nan
197 199 232 259 283 309 315 323 325 326 324 325 323 319 326 330 331 322 324 329 337 344 343 357 1 5 6 11 19 21 10 20 24 nan 30 32 28 29 26 19 29 28 18 14 nan nan nan nan nan nan 9 349 2 347 357 359 nan nan nan 353 350 349 350 nan nan nan nan nan nan nan nan nan nan nan nan nan nan nan nan nan nan nan nan nan nan
206 219 238 257 275 290 300 309 315 317 320 321 318 319 326 335 339 334 331 331 337 342 346 356 357 355 2 9 18 11 360 15 26 31 25 29 23 23 27 14 22 24 14 12 10 25 31 nan nan nan nan nan 352 354 347 349 347 341 nan 346 347 344 343 nan nan nan nan nan nan nan nan nan nan nan nan nan nan nan nan nan nan nan nan nan nan
214 223 236 253 266 280 293 298 303 308 314 318 319 322 332 336 339 344 340 336 339 344 348 352 348 346 358 4 14 5 353 7 23 26 24 20 20 17 17 17 14 19 7 358 6 10 10 21 5 nan nan nan nan nan nan 337 342 340 340 339 335 342 342 340 nan nan nan nan nan nan nan nan nan nan nan nan nan nan nan nan nan nan nan nan nan
222 235 242 253 264 273 284 295 305 313 322 325 324 325 328 331 337 341 341 339 341 345 348 347 340 343 349 357 13 2 346 0 18 24 22 19 16 8 12 11 10 11 359 353 357 354 4 14 9 342 339 340 339 335 330 335 336 334 330 332 335 340 341 340 340 343 350 nan nan nan nan nan nan nan nan nan nan nan nan nan nan nan nan nan nan
233 243 254 256 262 271 279 296 308 319 319 319 322 324 328 328 328 331 334 335 342 344 342 340 340 338 342 352 7 1 348 354 15 23 22 22 14 8 5 5 4 357 356 352 349 353 356 5 356 354 332 338 336 333 327 328 334 333 327 326 327 334 335 337 340 339 336 336 334 nan nan nan nan nan nan nan nan nan nan nan nan nan nan nan nan
244 246 251 257 254 260 270 281 299 311 314 311 311 313 314 316 321 324 329 327 331 334 336 338 337 335 340 352 7 3 360 0 12 20 19 14 11 13 6 3 355 349 354 351 349 353 357 359 354 347 345 336 334 340 326 323 329 329 325 nan 331 334 nan 333 339 335 331 332 333 337 nan nan nan nan nan nan nan nan nan nan nan nan nan nan nan
244 249 252 256 257 259 268 277 288 286 293 296 300 304 306 311 312 319 322 318 322 326 328 325 326 333 345 2 20 18 17 19 17 22 8 10 360 4 360 350 352 350 354 351 347 353 356 358 359 356 343 344 332 329 315 316 323 322 321 323 334 331 nan nan 334 334 328 nan 327 nan nan nan nan 339 341 nan nan nan nan nan nan nan nan nan nan
236 245 251 257 262 266 268 277 284 286 293 301 298 307 311 314 312 320 320 310 309 311 316 323 320 333 347 9 26 31 29 36 34 29 18 6 358 5 3 346 352 352 353 349 349 348 350 352 357 343 342 344 338 328 328 328 331 336 nan nan nan 327 nan nan 327 327 324 323 nan nan nan nan nan nan 328 328 329 nan 335 nan nan nan nan nan nan
235 243 251 259 263 272 276 283 287 293 303 298 329 352 338 318 312 306 286 274 280 294 309 317 325 343 17 23 32 36 35 35 33 31 30 24 19 13 7 343 348 347 349 349 346 344 342 344 346 342 340 345 338 329 331 331 324 nan nan nan nan nan nan nan nan nan nan nan nan nan nan nan nan nan 324 329 326 324 nan nan 325 nan nan nan nan
235 242 253 266 269 268 280 286 299 303 304 311 358 347 354 360 330 305 303 267 251 248 257 347 17 28 35 36 36 36 31 29 29 31 27 23 20 20 19 7 349 342 343 345 344 339 335 336 337 332 335 340 334 328 327 324 316 318 nan nan nan nan nan nan nan nan nan nan nan nan nan nan nan nan 322 325 324 318 318 nan nan nan nan nan nan
229 237 250 267 267 265 263 278 297 304 306 343 357 353 355 1 355 345 299 254 235 195 124 88 82 59 51 41 32 24 22 22 16 13 16 17 14 12 10 3 358 354 351 345 341 332 328 330 331 332 331 331 329 324 321 315 315 312 314 314 316 nan nan nan nan nan nan nan nan nan nan nan nan nan 317 321 318 314 315 319 nan nan nan nan nan
230 239 252 263 273 273 270 275 281 294 302 344 354 356 356 1 10 20 81 292 76 88 81 84 89 78 69 57 44 27 18 21 8 357 351 349 353 3 2 357 351 350 353 357 350 337 323 323 328 334 329 324 324 327 321 315 310 313 312 314 315 314 315 315 318 317 312 308 307 nan nan nan nan 309 314 315 311 308 310 315 321 321 323 nan nan
244 247 256 269 267 268 269 267 265 275 302 337 345 355 359 6 13 7 64 66 80 83 75 75 81 75 61 48 36 26 2 345 340 340 338 337 334 333 333 331 332 339 346 354 347 336 330 327 326 331 332 319 326 326 317 309 312 317 314 316 313 312 314 317 318 316 302 301 307 302 302 nan nan nan nan 308 302 303 305 310 317 318 319 nan nan
260 260 261 261 259 261 263 265 263 270 263 343 326 349 2 3 4 347 61 83 95 91 81 71 65 60 48 31 20 9 348 334 328 331 329 327 325 326 328 327 327 328 331 334 325 320 324 324 326 334 336 326 326 328 320 313 316 316 316 316 315 315 314 306 301 305 303 302 299 295 300 295 291 nan nan nan 296 301 301 306 313 315 317 319 nan
253 251 251 254 260 260 257 256 258 255 239 306 306 324 338 338 321 286 44 90 86 89 86 73 59 50 29 8 351 342 337 329 332 338 332 321 319 323 324 324 321 322 327 323 321 320 322 320 322 331 333 334 332 329 326 320 317 316 313 311 310 313 308 303 305 303 301 294 295 293 289 285 283 291 nan nan nan nan 298 299 305 311 313 314 315
259 260 258 256 249 246 243 244 248 238 220 254 282 291 293 295 278 244 243 201 120 93 88 72 51 32 1 339 328 324 324 322 327 329 327 322 317 320 318 318 316 318 321 305 315 325 329 332 339 342 345 346 341 336 333 333 327 320 309 310 319 317 310 307 308 299 288 284 291 296 297 295 293 297 296 293 nan nan nan nan nan 303 308 309 310
260 258 252 245 242 241 244 245 248 235 223 245 278 283 292 293 290 256 243 243 156 122 96 68 21 351 341 351 330 316 316 311 318 321 321 314 312 317 316 315 321 326 317 303 302 310 327 337 343 343 342 341 339 334 332 331 329 318 310 314 318 310 309 311 308 299 294 297 302 301 299 307 306 308 308 303 nan 300 nan nan nan nan 301 301 305
256 249 247 243 239 237 239 241 247 245 226 239 278 286 288 289 280 240 243 234 216 214 259 296 295 295 295 300 319 316 312 311 316 317 319 311 310 315 315 314 320 326 316 305 308 307 307 308 314 318 320 325 322 318 319 326 326 320 311 311 308 305 305 305 302 299 301 303 299 303 308 312 313 311 307 301 303 301 nan nan nan 295 294 293 293